TimeEST,TemperatureF,Dew PointF,Humidity,Sea Level PressureIn,VisibilityMPH,Wind Direction,Wind SpeedMPH,Gust SpeedMPH,PrecipitationIn,Events,Conditions,WindDirDegrees,DateUTC
12:53 AM,66.9,62.1,84,30.05,10.0,NNE,8.1,-,N/A,,Mostly Cloudy,30,2012-11-20 05:53:00
1:41 AM,66.2,60.8,83,30.04,10.0,NNE,6.9,-,N/A,,Scattered Clouds,20,2012-11-20 06:41:00
1:53 AM,66.9,61.0,81,30.04,10.0,NNE,8.1,-,N/A,,Scattered Clouds,30,2012-11-20 06:53:00
2:03 AM,66.2,60.8,83,30.04,10.0,NNE,8.1,-,N/A,,Mostly Cloudy,20,2012-11-20 07:03:00
2:53 AM,66.9,59.0,76,30.03,10.0,North,9.2,-,N/A,,Overcast,360,2012-11-20 07:53:00
3:53 AM,66.9,59.0,76,30.02,10.0,North,10.4,-,N/A,,Overcast,350,2012-11-20 08:53:00
4:53 AM,66.9,59.0,76,30.01,10.0,North,11.5,18.4,N/A,,Overcast,350,2012-11-20 09:53:00
5:53 AM,66.9,59.0,76,30.02,10.0,North,11.5,17.3,N/A,,Overcast,350,2012-11-20 10:53:00
6:53 AM,66.0,59.0,78,30.04,10.0,North,11.5,18.4,N/A,,Overcast,360,2012-11-20 11:53:00
7:53 AM,66.0,57.9,75,30.06,10.0,North,13.8,19.6,N/A,,Overcast,350,2012-11-20 12:53:00
10:53 AM,66.0,59.0,78,30.08,10.0,North,13.8,17.3,N/A,,Overcast,360,2012-11-20 15:53:00
12:25 PM,68.0,59.0,73,30.05,10.0,North,12.7,-,N/A,,Overcast,360,2012-11-20 17:25:00
12:53 PM,69.1,59.0,70,30.03,10.0,NNW,12.7,-,N/A,,Overcast,330,2012-11-20 17:53:00
1:53 PM,69.1,59.0,70,29.99,10.0,North,12.7,-,N/A,,Overcast,350,2012-11-20 18:53:00
3:53 PM,69.1,60.1,73,29.98,10.0,North,13.8,-,N/A,,Overcast,350,2012-11-20 20:53:00
4:53 PM,69.1,59.0,70,29.98,10.0,North,8.1,-,N/A,,Unknown,350,2012-11-20 21:53:00
9:51 PM,69.8,62.6,78,30.03,10.0,North,10.4,-,N/A,,Overcast,350,2012-11-21 02:51:00
9:53 PM,70.0,63.0,78,30.04,10.0,North,9.2,-,N/A,,Overcast,350,2012-11-21 02:53:00
10:53 PM,70.0,63.0,78,30.03,10.0,North,11.5,-,N/A,,Mostly Cloudy,350,2012-11-21 03:53:00
11:53 PM,69.1,63.0,81,30.01,10.0,NNW,11.5,-,N/A,,Partly Cloudy,340,2012-11-21 04:53:00